Martinsburg, PA

7:12 AM EST on January 20, 2017 (GMT -0500)
Altoona-Blair County

Weather History for KAOO - July, 2013

Change the Weather History Date:

Wednesday, July 17, 2013

  Actual Average Record
Temperature  
Mean Temperature 81 °F 71 °F  
Max Temperature 93 °F 82 °F 96 °F (1969)
Min Temperature 69 °F 60 °F 50 °F (1954)
Degree Days  
Heating Degree Days 0 0  
Month to date heating degree days 0 1  
Since 1 June heating degree days 17 59  
Since 1 July heating degree days 0 1  
Cooling Degree Days 16 6  
Month to date cooling degree days 177 101  
Year to date cooling degree days 381 243  
Since 1 June cooling degree days 314 210  
Growing Degree Days 30 (Base 50)    
Moisture  
Dew Point 69 °F    
Average Humidity 69    
Maximum Humidity 93    
Minimum Humidity 44    
Precipitation  
Precipitation 0.00 in 0.10 in 1.74 in (1949)
Month to date precipitation 1.18 1.81  
Year to date precipitation 5.90 19.47  
Sea Level Pressure  
Sea Level Pressure 30.25 in    
Wind  
Wind Speed 3 mph (NW)    
Max Wind Speed 15 mph    
Max Gust Speed 23 mph    
Visibility 7 miles    
Events      
T = Trace of Precipitation, MM = Missing Value Source: NWS Daily Summary

Daily Weather History Graph

Daily Weather History Graph

Search for Another Location

Airport or City:

Trip Planner

Search our weather history database for the weather conditions in past years. The results will help you decide how hot, cold, wet, or windy it might be!

Date:

Astronomy

Jul. 17, 2013 Rise Set
Actual Time 5:57 AM EDT 8:40 PM EDT
Civil Twilight 5:26 AM EDT 9:12 PM EDT
Nautical Twilight 4:46 AM EDT 9:52 PM EDT
Astronomical Twilight 4:00 AM EDT 10:37 PM EDT
Moon 3:27 PM EDT (7/17) 1:03 AM EDT (7/17)
Length of Visible Light 15h 46m
Length of Day
14h 42m
Waxing Gibbous, 67% of the Moon is Illuminated
Jul 17
Waxing Gibbous
Jul 22
Full
Jul 29
Last Quarter
Aug 6
New
Aug 14
First Quarter

Hourly Weather History & Observations

Time (EDT) Temp. Heat Index Dew Point Humidity Pressure Visibility Wind Dir Wind Speed Gust Speed Precip Events Conditions
12:53 AM 77.0 °F - 71.1 °F 82% 30.26 in 7.0 mi West 4.6 mph - N/A   Mostly Cloudy
1:53 AM 77.0 °F - 70.0 °F 79% 30.25 in 10.0 mi Calm Calm - N/A   Partly Cloudy
2:53 AM 73.0 °F - 69.1 °F 87% 30.24 in 6.0 mi Calm Calm - N/A   Clear
3:53 AM 72.0 °F - 69.1 °F 91% 30.25 in 4.0 mi Calm Calm - N/A   Clear
4:42 AM 69.8 °F - 68.0 °F 94% 30.29 in 2.5 mi Calm Calm - N/A   Clear
4:53 AM 71.1 °F - 68.0 °F 90% 30.26 in 3.0 mi Calm Calm - N/A   Clear
5:13 AM 69.8 °F - 68.0 °F 94% 30.30 in 2.0 mi Calm Calm - N/A   Clear
5:46 AM 71.6 °F - 68.0 °F 88% 30.31 in 5.0 mi Calm Calm - N/A   Clear
5:53 AM 70.0 °F - 66.9 °F 90% 30.28 in 2.5 mi Calm Calm - N/A   Clear
6:02 AM 69.8 °F - 68.0 °F 94% 30.31 in 1.8 mi Calm Calm - N/A   Clear
6:41 AM 69.8 °F - 68.0 °F 94% 30.31 in 2.5 mi SW 3.5 mph - N/A   Clear
6:53 AM 71.1 °F - 69.1 °F 93% 30.28 in 3.0 mi Calm Calm - N/A   Clear
7:53 AM 75.9 °F - 70.0 °F 82% 30.29 in 5.0 mi Calm Calm - N/A   Haze
8:53 AM 79.0 °F - 70.0 °F 74% 30.30 in 8.0 mi Calm Calm - N/A   Clear
9:53 AM 84.0 °F 88.4 °F 70.0 °F 63% 30.30 in 10.0 mi NW 3.5 mph - N/A   Clear
10:53 AM 86.0 °F 90.7 °F 70.0 °F 59% 30.29 in 10.0 mi North 4.6 mph - N/A   Clear
11:53 AM 87.1 °F 91.3 °F 69.1 °F 55% 30.27 in 10.0 mi NE 5.8 mph - N/A   Clear
12:53 PM 90.0 °F 95.4 °F 70.0 °F 52% 30.26 in 10.0 mi Variable 3.5 mph - N/A   Clear
1:53 PM 88.0 °F 92.9 °F 70.0 °F 55% 30.25 in 10.0 mi Variable 3.5 mph - N/A   Scattered Clouds
2:53 PM 89.1 °F 92.9 °F 68.0 °F 50% 30.22 in 10.0 mi Variable 3.5 mph - N/A   Clear
3:53 PM 91.9 °F 95.9 °F 68.0 °F 45% 30.21 in 10.0 mi WNW 5.8 mph - N/A   Mostly Cloudy
4:53 PM 91.9 °F 95.4 °F 66.9 °F 44% 30.18 in 10.0 mi NNW 6.9 mph - N/A   Clear
5:53 PM 91.9 °F 95.4 °F 66.9 °F 44% 30.17 in 7.0 mi North 6.9 mph - N/A   Partly Cloudy
6:53 PM 89.1 °F 92.9 °F 68.0 °F 50% 30.15 in 10.0 mi NNW 6.9 mph - N/A   Clear
7:53 PM 82.9 °F 85.8 °F 68.0 °F 60% 30.17 in 10.0 mi NNW 9.2 mph - N/A   Partly Cloudy
8:53 PM 77.0 °F - 69.1 °F 76% 30.17 in 10.0 mi Calm Calm - N/A   Clear
9:53 PM 77.0 °F - 68.0 °F 74% 30.18 in 10.0 mi WNW 4.6 mph - N/A   Clear
10:53 PM 77.0 °F - 69.1 °F 76% 30.19 in 10.0 mi WNW 4.6 mph - N/A   Clear
11:53 PM 75.9 °F - 69.1 °F 79% 30.19 in 9.0 mi WSW 4.6 mph - N/A   Clear